GW3329 Weather Reports


time (UTC)temp
F
wind
direction
speed
knots
gust
knots
rain 1hr
in
rain 24hr
in
rain mn
in
humidity
%
barometer
mb
20260906161711 64 146 0.9 5.2 0.00 0.00 0.00 87 1019.6
20260906161210 65 143 0.0 1.7 0.00 0.00 0.00 86 1019.4
20260906160709 65 140 0.0 6.1 0.00 0.00 0.00 86 1019.4
20260906160209 64 150 0.0 1.7 0.00 0.00 0.00 85 1019.2
20260906155706 64 180 1.7 2.6 0.00 0.00 0.00 86 1019.1
20260906155202 65 177 0.9 6.1 0.00 0.00 0.00 85 1018.8
20260906154657 66 103 3.5 6.1 0.00 0.00 0.00 81 1018.4
20260906154156 65 96 0.9 7.0 0.00 0.00 0.00 80 1018.1
20260906153655 65 149 2.6 2.6 0.00 0.00 0.00 81 1018.4
20260906153150 65 141 0.0 2.6 0.00 0.00 0.00 83 1018.2
20260906152645 65 136 0.9 2.6 0.00 0.00 0.00 80 1018.4
20260906152139 64 130 2.6 6.1 0.00 0.00 0.00 79 1018.3
20260906151634 64 89 1.7 7.8 0.00 0.00 0.00 79 1018.1
20260906151130 64 140 1.7 2.6 0.00 0.00 0.00 79 1018.1
20260906150625 64 129 0.9 3.5 0.00 0.00 0.00 79 1018.3
20260906150120 64 130 2.6 7.0 0.00 0.00 0.00 79 1018.1
20260906145619 64 89 1.7 3.5 0.00 0.00 0.00 79 1018.0
20260906145114 65 177 2.6 6.1 0.00 0.00 0.00 77 1018.1
20260906144608 65 138 0.9 2.6 0.00 0.00 0.00 74 1018.1
20260906144103 65 148 0.9 2.6 0.00 0.00 0.00 73 1018.0
20260906143558 66 146 0.9 3.5 0.00 0.00 0.00 72 1018.0
20260906143055 66 110 1.7 2.6 0.00 0.00 0.00 69 1017.7
20260906142553 67 172 1.7 3.5 0.00 0.00 0.00 68 1017.6
20260906142049 67 113 0.9 1.7 0.00 0.00 0.00 67 1017.7
20260906141548 68 156 0.9 5.2 0.00 0.00 0.00 66 1017.6
20260906141044 69 169 0.9 2.6 0.00 0.00 0.00 64 1017.4
20260906140543 69 157 0.9 1.7 0.00 0.00 0.00 60 1017.6
20260906140037 70 149 2.6 7.0 0.00 0.00 0.00 59 1017.6
20260906135534 70 125 0.9 1.7 0.00 0.00 0.00 60 1017.5
20260906135030 70 133 0.9 2.6 0.00 0.00 0.00 59 1017.4
20260906134525 70 144 1.7 2.6 0.00 0.00 0.00 59 1017.3
20260906134020 70 103 0.9 5.2 0.00 0.00 0.00 59 1017.3
20260906133516 70 208 2.6 6.1 0.00 0.00 0.00 57 1017.4
20260906133011 71 144 1.7 6.1 0.00 0.00 0.00 55 1017.5
20260906132507 71 162 0.0 0.0 0.00 0.00 0.00 54 1017.5
20260906132002 70 131 0.0 0.0 0.00 0.00 0.00 55 1017.2
20260906131457 69 112 0.0 0.0 0.00 0.00 0.00 57 1017.2
20260906130952 69 132 0.0 0.0 0.00 0.00 0.00 59 1017.3
20260906130451 69 120 0.0 0.0 0.00 0.00 0.00 62 1017.0
20260906125946 68 129 0.0 0.0 0.00 0.00 0.00 62 1017.1
20260906125444 68 118 0.0 0.0 0.00 0.00 0.00 64 1017.0
20260906124943 68 135 0.0 0.0 0.00 0.00 0.00 66 1017.2
20260906124439 68 136 0.0 0.0 0.00 0.00 0.00 65 1017.2
20260906123939 67 127 0.0 0.0 0.00 0.00 0.00 68 1017.1
20260906123433 67 135 0.0 0.0 0.00 0.00 0.00 67 1016.9
20260906122933 67 134 0.0 0.0 0.00 0.00 0.00 68 1016.8
20260906122428 67 134 0.0 0.0 0.00 0.00 0.00 68 1016.5
20260906121925 67 135 0.0 0.0 0.00 0.00 0.00 67 1016.7
20260906121421 67 134 0.0 0.0 0.00 0.00 0.00 67 1016.7
20260906120917 66 135 0.0 0.0 0.00 0.00 0.00 69 1016.5
20260906120412 66 135 0.0 0.0 0.00 0.00 0.00 69 1016.6
20260906115908 66 135 0.0 0.0 0.00 0.00 0.00 70 1016.5
20260906115404 66 135 0.0 0.0 0.00 0.00 0.00 70 1016.6
20260906114903 66 135 0.0 0.0 0.00 0.00 0.00 69 1016.4
20260906114358 66 135 0.0 0.0 0.00 0.00 0.00 70 1016.6
20260906113854 66 135 0.0 0.0 0.00 0.00 0.00 69 1016.5
20260906113352 66 135 0.0 0.0 0.00 0.00 0.00 70 1016.5
20260906112848 66 135 0.0 0.0 0.00 0.00 0.00 69 1016.6
20260906112343 67 137 0.0 0.0 0.00 0.00 0.00 69 1016.6
20260906111838 67 140 0.0 0.0 0.00 0.00 0.00 67 1016.8
20260906111338 67 132 0.0 0.0 0.00 0.00 0.00 67 1016.6
20260906110833 67 132 0.0 0.0 0.00 0.00 0.00 66 1016.4
20260906110329 67 132 0.0 0.0 0.00 0.00 0.00 66 1016.6
20260906105827 68 132 0.0 0.0 0.00 0.00 0.00 66 1016.6
20260906105323 68 132 0.0 0.0 0.00 0.00 0.00 66 1016.4
20260906104819 68 131 0.0 0.0 0.00 0.00 0.00 66 1016.5
20260906104318 68 132 0.0 0.0 0.00 0.00 0.00 65 1016.7
20260906103816 68 128 0.0 0.0 0.00 0.00 0.00 66 1016.7
20260906103315 68 124 0.0 0.0 0.00 0.00 0.00 66 1016.7
20260906102811 68 132 0.0 0.0 0.00 0.00 0.00 66 1016.6
20260906102310 68 131 0.0 0.0 0.00 0.00 0.00 67 1016.5
20260906101805 68 112 0.0 0.0 0.00 0.00 0.00 67 1016.7
20260906101300 68 132 0.0 0.0 0.00 0.00 0.00 68 1016.7
20260906100756 68 131 0.0 0.0 0.00 0.00 0.00 69 1016.6
20260906100255 67 132 0.0 0.0 0.00 0.00 0.00 70 1016.5
20260906095750 67 120 0.0 0.0 0.00 0.00 0.00 70 1016.6
20260906095245 67 139 0.0 0.0 0.00 0.00 0.00 70 1016.5
20260906094744 67 140 0.0 0.0 0.00 0.00 0.00 70 1016.8
20260906094240 67 153 0.0 0.0 0.00 0.00 0.00 70 1016.6
20260906093736 67 152 0.0 0.0 0.00 0.00 0.00 69 1016.6
20260906093231 67 136 0.0 0.0 0.00 0.00 0.00 69 1016.7
20260906092727 67 152 0.0 0.0 0.00 0.00 0.00 69 1016.7
20260906092226 67 146 0.0 0.0 0.00 0.00 0.00 70 1016.8
20260906091722 67 142 0.0 0.0 0.00 0.00 0.00 70 1016.9
20260906091218 67 168 0.0 0.0 0.00 0.00 0.00 70 1016.8
20260906090715 67 131 0.0 0.0 0.00 0.00 0.00 71 1016.9
20260906090214 66 131 0.0 0.0 0.00 0.00 0.00 71 1017.0
20260906085713 66 147 0.0 0.0 0.00 0.00 0.00 71 1016.9
20260906085212 66 131 0.0 0.0 0.00 0.00 0.00 72 1016.9
20260906084707 66 147 0.0 0.0 0.00 0.00 0.00 72 1017.0
20260906084201 66 155 0.0 0.0 0.00 0.00 0.00 72 1016.8
20260906083656 66 159 0.0 0.0 0.00 0.00 0.00 73 1017.0
20260906083151 65 166 0.0 0.0 0.00 0.00 0.00 74 1016.8
20260906082646 65 140 0.0 0.0 0.00 0.00 0.00 74 1016.9
20260906082142 65 140 0.0 0.0 0.00 0.00 0.00 75 1017.3
20260906081637 65 156 0.0 0.0 0.00 0.00 0.00 75 1017.3
20260906081132 64 143 0.0 0.0 0.00 0.00 0.00 76 1017.0
20260906080628 65 143 0.0 0.0 0.00 0.00 0.00 76 1017.1
20260906080125 65 143 0.0 0.0 0.00 0.00 0.00 75 1017.1
20260906075624 65 145 0.0 0.0 0.00 0.00 0.00 75 1017.3
20260906075118 65 145 0.0 0.0 0.00 0.00 0.00 74 1017.1
20260906074615 65 144 0.0 0.0 0.00 0.00 0.00 73 1017.2
20260906074113 65 144 0.0 0.0 0.00 0.00 0.00 72 1017.4
20260906073608 65 144 0.0 0.0 0.00 0.00 0.00 72 1017.3
20260906073104 65 157 0.0 0.0 0.00 0.00 0.00 72 1017.1
20260906072558 65 157 0.0 0.0 0.00 0.00 0.00 74 1017.2
20260906072054 65 167 0.0 0.0 0.00 0.00 0.00 75 1017.0
20260906071551 65 152 0.0 0.0 0.00 0.00 0.00 78 1017.2
20260906071045 65 152 0.0 0.0 0.00 0.00 0.00 78 1017.2
20260906070542 65 153 0.0 0.0 0.00 0.00 0.00 78 1017.2
20260906070037 65 155 0.0 0.0 0.00 0.00 0.00 78 1017.3
20260906065537 65 155 0.0 0.0 0.00 0.00 0.00 78 1017.3
20260906065032 64 155 0.0 0.0 0.00 0.00 0.00 79 1017.2
20260906064528 64 155 0.0 0.0 0.00 0.00 0.00 79 1017.3
20260906064022 64 146 0.0 0.0 0.00 0.00 0.00 81 1017.0
20260906063518 64 146 0.0 0.0 0.00 0.00 0.00 81 1017.3
20260906063014 64 137 0.0 0.0 0.00 0.00 0.00 82 1017.3
20260906062508 64 152 0.0 0.0 0.00 0.00 0.00 83 1017.5
20260906061958 64 152 0.0 0.0 0.00 0.00 0.00 83 1017.4
20260906061453 64 152 0.0 0.0 0.00 0.00 0.00 83 1017.5
20260906060948 64 136 0.0 0.0 0.00 0.00 0.00 83 1017.4
20260906060445 65 151 0.0 0.0 0.00 0.00 0.00 82 1017.2
20260906055941 65 151 0.0 0.0 0.00 0.00 0.00 82 1017.2
20260906055437 65 157 0.0 0.0 0.00 0.00 0.00 82 1017.3
20260906054932 65 159 0.0 0.0 0.00 0.00 0.00 82 1017.2
20260906054427 65 159 0.0 0.0 0.00 0.00 0.00 81 1017.3
20260906053922 65 162 0.0 0.0 0.00 0.00 0.00 82 1017.2
20260906053419 65 162 0.0 0.0 0.00 0.00 0.00 81 1017.4
20260906052914 65 162 0.0 0.0 0.00 0.00 0.00 81 1017.2
20260906052410 65 162 0.0 0.0 0.00 0.00 0.00 80 1017.4
20260906051907 65 162 0.0 0.0 0.00 0.00 0.00 79 1017.4
20260906051407 65 162 0.0 0.0 0.00 0.00 0.00 78 1017.4
20260906050903 65 162 0.0 0.0 0.00 0.00 0.00 79 1017.5
20260906050357 65 159 0.0 0.0 0.00 0.00 0.00 77 1017.5
20260906045855 66 162 0.0 0.0 0.00 0.00 0.00 78 1017.6
20260906045355 66 161 0.0 0.0 0.00 0.00 0.00 77 1017.8
20260906044851 66 162 0.0 0.0 0.00 0.00 0.00 78 1017.6
20260906044351 66 162 0.0 0.0 0.00 0.00 0.00 77 1017.9
20260906043847 66 162 0.0 0.0 0.00 0.00 0.00 76 1017.9
20260906043343 66 162 0.0 0.0 0.00 0.00 0.00 77 1017.5
20260906042838 66 163 0.0 0.0 0.00 0.00 0.00 78 1017.6
20260906042336 67 161 0.0 0.0 0.00 0.00 0.00 77 1017.7
20260906041832 67 165 0.0 0.0 0.00 0.00 0.00 78 1017.8
20260906041328 67 173 0.0 0.0 0.00 0.00 0.00 79 1017.7
20260906040828 67 169 0.0 0.0 0.00 0.00 0.00 78 1017.5
20260906040323 67 155 0.0 0.0 0.00 0.00 0.00 77 1017.6
20260906035819 68 161 0.0 0.0 0.00 0.00 0.00 77 1017.4
20260906035314 68 175 0.0 0.0 0.00 0.00 0.00 78 1017.5
20260906034809 68 176 0.0 0.9 0.00 0.00 0.00 78 1017.4
20260906034304 68 171 0.0 0.0 0.00 0.00 0.00 78 1017.3
20260906033800 68 171 0.0 0.0 0.00 0.00 0.00 76 1017.3
20260906033259 68 163 0.0 0.0 0.00 0.00 0.00 75 1017.3
20260906032756 68 155 0.0 0.0 0.00 0.00 0.00 73 1017.0
20260906032255 68 155 0.0 0.0 0.00 0.00 0.00 74 1017.2
20260906031750 68 156 0.0 0.0 0.00 0.00 0.00 74 1017.1
20260906031247 68 153 0.0 0.0 0.00 0.00 0.00 74 1017.2
20260906030740 69 151 0.0 0.0 0.00 0.00 0.00 72 1017.2
20260906030235 69 151 0.0 0.0 0.00 0.00 0.00 72 1017.0
20260906025734 69 157 0.0 0.0 0.00 0.00 0.00 73 1017.0
20260906025230 70 157 0.0 0.0 0.00 0.00 0.00 73 1017.2
20260906024728 70 157 0.0 0.0 0.00 0.00 0.00 71 1017.1
20260906024227 70 162 0.0 0.0 0.00 0.00 0.00 71 1017.0
20260906023723 70 157 0.0 0.0 0.00 0.00 0.00 70 1017.1
20260906023218 71 184 0.0 0.0 0.00 0.00 0.00 70 1016.9
20260906022714 71 165 0.0 0.9 0.00 0.00 0.00 70 1016.8
20260906022209 72 162 0.0 0.9 0.00 0.00 0.00 69 1016.8
20260906021705 72 178 0.0 0.9 0.00 0.00 0.00 68 1017.2
20260906021203 72 132 0.0 0.0 0.00 0.00 0.00 67 1016.9
20260906020658 73 147 0.0 0.9 0.00 0.00 0.00 65 1017.0
20260906020153 73 139 0.0 0.9 0.00 0.00 0.00 65 1016.9
20260906015648 74 133 0.0 0.0 0.00 0.00 0.00 64 1016.9
20260906015146 74 140 0.0 2.6 0.00 0.00 0.00 63 1017.0
20260906014641 75 73 0.9 0.9 0.00 0.00 0.00 61 1016.6
20260906014137 75 48 0.9 2.6 0.00 0.00 0.00 59 1016.7
20260906013633 75 47 0.0 1.7 0.00 0.00 0.00 58 1016.7
20260906013128 76 228 0.9 2.6 0.00 0.00 0.00 56 1016.8
20260906012627 77 7 1.7 2.6 0.00 0.00 0.00 54 1016.7
20260906012122 78 185 0.9 2.6 0.00 0.00 0.00 52 1016.8
20260906011618 79 133 0.0 1.7 0.00 0.00 0.00 51 1016.5
20260906011113 80 277 2.6 3.5 0.00 0.00 0.00 49 1016.9
20260906010608 80 186 0.9 0.9 0.00 0.00 0.00 47 1016.6
20260906010104 80 151 1.7 3.5 0.00 0.00 0.00 46 1016.9
20260906005603 81 230 1.7 2.6 0.00 0.00 0.00 44 1016.8
20260906005102 82 274 4.3 5.2 0.00 0.00 0.00 44 1016.8
20260906004556 82 262 1.7 2.6 0.00 0.00 0.00 44 1016.7
20260906004051 82 241 0.9 1.7 0.00 0.00 0.00 44 1016.6
20260906003546 83 158 0.9 5.2 0.00 0.00 0.00 43 1016.4
20260906003042 83 142 0.9 3.5 0.00 0.00 0.00 42 1016.4
20260906002537 83 251 1.7 2.6 0.00 0.00 0.00 42 1016.3
20260906002032 83 212 1.7 3.5 0.00 0.00 0.00 42 1016.7
20260906001527 83 161 0.0 1.7 0.00 0.00 0.00 42 1016.4
20260906001021 83 77 1.7 7.0 0.00 0.00 0.00 41 1016.4
20260906000518 84 287 0.9 3.5 0.00 0.00 0.00 40 1016.5
20260906000018 84 196 0.9 1.7 0.00 0.00 0.00 39 1016.3
20260905235512 85 303 3.5 5.2 0.00 0.00 0.00 39 1016.4
20260905235007 85 283 0.9 3.5 0.00 0.00 0.00 38 1016.5
20260905234502 85 230 1.7 5.2 0.00 0.00 0.00 40 1016.5
20260905233956 85 256 2.6 5.2 0.00 0.00 0.00 40 1016.3
20260905233452 85 155 0.9 3.5 0.00 0.00 0.00 41 1016.5
20260905232950 85 229 1.7 3.5 0.00 0.00 0.00 41 1016.5
20260905232447 85 109 0.9 6.1 0.00 0.00 0.00 43 1016.5
20260905231943 85 231 1.7 3.5 0.00 0.00 0.00 42 1016.6
20260905231438 86 175 3.5 7.0 0.00 0.00 0.00 43 1016.2
20260905230934 86 293 2.6 3.5 0.00 0.00 0.00 43 1016.5
20260905230433 86 207 0.9 3.5 0.00 0.00 0.00 45 1016.4
20260905225931 86 189 1.7 7.0 0.00 0.00 0.00 44 1016.6
20260905225426 86 297 3.5 3.5 0.00 0.00 0.00 42 1016.5
20260905224921 87 357 1.7 3.5 0.00 0.00 0.00 41 1016.4
20260905224417 86 19 0.9 2.6 0.00 0.00 0.00 42 1016.5
20260905223917 87 317 5.2 6.1 0.00 0.00 0.00 42 1016.5
20260905223415 87 167 0.9 3.5 0.00 0.00 0.00 42 1016.6
20260905222915 87 205 2.6 7.8 0.00 0.00 0.00 42 1016.6
20260905222414 87 113 1.7 6.1 0.00 0.00 0.00 40 1016.6
20260905221910 87 6 2.6 6.1 0.00 0.00 0.00 43 1016.7
20260905221407 88 137 0.0 1.7 0.00 0.00 0.00 45 1016.7
20260905220902 87 153 0.9 1.7 0.00 0.00 0.00 46 1016.8
20260905220358 88 111 0.9 2.6 0.00 0.00 0.00 46 1016.9
20260905215857 87 159 1.7 6.1 0.00 0.00 0.00 47 1017.0
20260905215353 87 127 0.0 1.7 0.00 0.00 0.00 49 1016.8
20260905214849 87 49 0.9 5.2 0.00 0.00 0.00 48 1016.8
20260905214344 87 230 1.7 6.1 0.00 0.00 0.00 49 1017.0
20260905213839 87 167 2.6 7.0 0.00 0.00 0.00 49 1016.9
20260905213336 87 229 0.9 2.6 0.00 0.00 0.00 49 1016.9
20260905212835 86 81 0.9 2.6 0.00 0.00 0.00 51 1017.0
20260905212330 87 265 1.7 7.8 0.00 0.00 0.00 50 1016.9
20260905211824 87 76 0.0 1.7 0.00 0.00 0.00 51 1017.1
20260905211320 87 59 0.9 7.8 0.00 0.00 0.00 51 1017.0
20260905210817 87 45 0.0 3.5 0.00 0.00 0.00 50 1017.2
20260905210316 87 230 1.7 6.1 0.00 0.00 0.00 48 1017.3
20260905205815 87 233 1.7 5.2 0.00 0.00 0.00 49 1017.1
20260905205310 87 99 1.7 5.2 0.00 0.00 0.00 48 1017.3
20260905204809 87 5 0.9 3.5 0.00 0.00 0.00 47 1017.2
20260905204305 87 114 0.0 3.5 0.00 0.00 0.00 47 1017.3
20260905203804 87 221 3.5 7.0 0.00 0.00 0.00 46 1017.4
20260905203300 87 65 0.0 5.2 0.00 0.00 0.00 46 1017.4
20260905202755 87 48 0.9 3.5 0.00 0.00 0.00 44 1017.3
20260905202250 87 167 0.0 1.7 0.00 0.00 0.00 45 1017.6
20260905201745 87 5 0.9 3.5 0.00 0.00 0.00 46 1017.5
20260905201240 87 47 0.9 6.1 0.00 0.00 0.00 45 1017.5
20260905200736 87 146 0.9 7.0 0.00 0.00 0.00 45 1017.6
20260905200231 88 200 0.9 6.1 0.00 0.00 0.00 45 1017.6
20260905195729 88 240 2.6 6.1 0.00 0.00 0.00 43 1017.5
20260905195224 88 271 1.7 5.2 0.00 0.00 0.00 43 1017.8
20260905194720 88 124 0.0 3.5 0.00 0.00 0.00 41 1017.8
20260905194219 88 231 3.5 3.5 0.00 0.00 0.00 41 1017.7
20260905193713 88 87 0.9 1.7 0.00 0.00 0.00 34 1017.8
20260905193208 87 144 1.7 1.7 0.00 0.00 0.00 35 1017.8
20260905192704 87 108 0.9 0.9 0.00 0.00 0.00 38 1017.8
20260905192200 86 95 0.0 0.9 0.00 0.00 0.00 38 1018.0
20260905191700 86 61 0.9 2.6 0.00 0.00 0.00 38 1018.1
20260905191157 86 102 0.9 2.6 0.00 0.00 0.00 39 1018.0
20260905190657 86 147 0.0 3.5 0.00 0.00 0.00 40 1018.1
20260905190156 86 122 0.9 1.7 0.00 0.00 0.00 40 1018.1
20260905185655 86 157 0.9 1.7 0.00 0.00 0.00 40 1018.2
20260905185149 85 70 0.9 1.7 0.00 0.00 0.00 39 1018.5
20260905184649 85 146 0.0 0.0 0.00 0.00 0.00 40 1018.5
20260905184148 84 126 0.0 0.9 0.00 0.00 0.00 39 1018.2
20260905183642 84 43 0.0 0.9 0.00 0.00 0.00 40 1018.4
20260905183137 84 140 0.9 2.6 0.00 0.00 0.00 41 1018.3
20260905182636 84 166 0.0 1.7 0.00 0.00 0.00 39 1018.5
20260905182131 83 150 0.9 5.2 0.00 0.00 0.00 40 1018.6
20260905181626 83 85 0.0 0.9 0.00 0.00 0.00 42 1018.6
20260905181125 83 70 1.7 3.5 0.00 0.00 0.00 41 1018.7
20260905180620 82 65 0.9 1.7 0.00 0.00 0.00 43 1018.7
20260905180115 82 98 0.9 1.7 0.00 0.00 0.00 42 1018.7
20260905175615 82 157 0.0 0.9 0.00 0.00 0.00 43 1018.7
20260905175110 81 105 1.7 3.5 0.00 0.00 0.00 43 1018.6
20260905174605 81 230 0.9 2.6 0.00 0.00 0.00 44 1018.7
20260905174101 81 134 0.0 0.9 0.00 0.00 0.00 48 1018.7
20260905173557 80 85 0.0 0.9 0.00 0.00 0.00 49 1018.8
20260905173052 80 199 1.7 2.6 0.00 0.00 0.00 46 1018.6
20260905172551 80 140 1.7 2.6 0.00 0.00 0.00 50 1018.5
20260905172047 79 154 1.7 2.6 0.00 0.00 0.00 51 1018.6
20260905171543 79 87 0.9 1.7 0.00 0.00 0.00 54 1018.5
20260905171038 78 145 0.0 0.9 0.00 0.00 0.00 54 1018.4
20260905170535 78 75 0.0 0.9 0.00 0.00 0.00 55 1018.5
20260905170030 79 135 0.9 0.9 0.00 0.00 0.00 53 1018.4
20260905165524 77 140 0.0 1.7 0.00 0.00 0.00 58 1018.5
20260905165019 77 117 0.0 1.7 0.00 0.00 0.00 61 1018.6
20260905164514 77 174 1.7 2.6 0.00 0.00 0.00 60 1018.5
20260905164009 77 163 0.9 0.9 0.00 0.00 0.00 59 1018.3
20260905163505 77 91 0.9 0.9 0.00 0.00 0.00 60 1018.4
20260905163001 77 134 1.7 1.7 0.00 0.00 0.00 61 1018.3
20260905162456 76 117 0.9 1.7 0.00 0.00 0.00 63 1018.1
20260905161951 75 119 0.9 0.9 0.00 0.00 0.00 64 1018.2